This is the latest recevied weather packets stored in our database for station/object EA1PVC-10. If no packets are shown the sender has not sent any weather packets the latest 10 day(s).
| Time | Temp. | Humidity | Pressure | Rain* | Wind** | Luminosity | Snow |
|---|---|---|---|---|---|---|---|
| 1777599607 | 12.22° C | 79% | 924.7 hPa | - | - | - | - |
| 1777598707 | 12.78° C | 74% | 924.8 hPa | - | - | - | - |
| 1777597807 | 12.78° C | 75% | 924.9 hPa | - | - | - | - |
| 1777596907 | 13.33° C | 71% | 925.1 hPa | - | - | - | - |
| 1777595107 | 13.33° C | 74% | 925.1 hPa | - | - | - | - |
| 1777594207 | 13.33° C | 73% | 925.2 hPa | - | - | - | - |
| 1777593309 | 13.89° C | 72% | 925.2 hPa | - | - | - | - |
| 1777592407 | 13.89° C | 69% | 925.9 hPa | - | - | - | - |
| 1777591507 | 9.44° C | 68% | 919.3 hPa | - | - | - | - |
| 1777590595 | 13.89° C | 68% | 925.4 hPa | - | - | - | - |
| 1777589695 | 13.89° C | 68% | 925.2 hPa | - | - | - | - |
| 1777588795 | 5° C | 67% | 911.9 hPa | - | - | - | - |
| 1777587895 | 14.44° C | 69% | 925.2 hPa | - | - | - | - |
| 1777586995 | 14.44° C | 67% | 925.2 hPa | - | - | - | - |
| 1777586095 | 14.44° C | 64% | 925.3 hPa | - | - | - | - |
| 1777585195 | 15° C | 65% | 925.2 hPa | - | - | - | - |
| 1777584295 | 14.44° C | 66% | 925.1 hPa | - | - | - | - |
| 1777583395 | 14.44° C | 68% | 925 hPa | - | - | - | - |
| 1777582495 | 14.44° C | 67% | 925 hPa | - | - | - | - |
| 1777581595 | 14.44° C | 64% | 924.9 hPa | - | - | - | - |
| 1777580694 | 10.56° C | 64% | 918.6 hPa | - | - | - | - |
| 1777579783 | 14.44° C | 65% | 924.5 hPa | - | - | - | - |
| 1777578883 | 15° C | 63% | 924.3 hPa | - | - | - | - |
| 1777577983 | 15° C | 62% | 924.3 hPa | - | - | - | - |
| 1777577083 | 15.56° C | 61% | 924.2 hPa | - | - | - | - |
* Rain since midnight (hover to see other rain measurements)
** Current wind speed in m/s (hover to see current wind gust speed)